Location: Byhalia Creek
(34.8270°N, 89.8040°W)
Time: 17:27:02
(UTC+00:00)

Cosmos 990 Rocket - Pass Details

Date: 22 April 2026
Orbit: 743 x 763 km, 74.0° (Epoch: 9 May)

Event Time Altitude Azimuth Distance (km) Brightness Sun altitude
Rises 08:47:24 0° 344° (NNW) 3,190 7.5 -28.1°
Reaches altitude 10° 08:49:46 10° 345° (NNW) 2,264 6.7 -27.7°
Maximum altitude 08:54:54 81° 72° (ENE) 761 3.9 -26.9°
Enters shadow 08:55:11 77° 117° (ESE) 770 3.9 -26.9°
